When you browse on this site, cookies collect data to enhance your experience and personalize the content and advertising you see.
Visit our Privacy Policy to learn more. By continuing to use the site, you agree to this use of cookies and data.

Hourly Weather Bandar Seri Begawan

Today, 18 September, Friday

Time Temperature Precipitation Wind Pressure Humidity
00:00 +28°C° 0.1 mm 1 mps 755 mmHg 79%
01:00 +27°C° 0.1 mm 1 mps 754 mmHg 80%
02:00 +27°C° 0 mm 1 mps 754 mmHg 81%
03:00 +27°C° 0 mm 1 mps 754 mmHg 81%
04:00 +27°C° 0 mm 1 mps 754 mmHg 81%
05:00 +26°C° 0 mm 1 mps 753 mmHg 82%
06:00 +27°C° 0 mm 1 mps 754 mmHg 79%
07:00 +28°C° 0 mm 1 mps 754 mmHg 75%
08:00 +30°C° 0 mm 1 mps 755 mmHg 72%
09:00 +32°C° 0 mm 1 mps 755 mmHg 64%
10:00 +34°C° 0 mm 1 mps 754 mmHg 57%
11:00 +35°C° 0 mm 1 mps 754 mmHg 49%
12:00 +36°C° 0 mm 1 mps 753 mmHg 48%
13:00 +37°C° 0 mm 2 mps 752 mmHg 47%
14:00 +37°C° 0 mm 2 mps 752 mmHg 45%
15:00 +36°C° 0 mm 2 mps 751 mmHg 52%
16:00 +35°C° 0 mm 2 mps 751 mmHg 59%
17:00 +34°C° 0 mm 2 mps 751 mmHg 66%
18:00 +31°C° 0 mm 3 mps 752 mmHg 71%
19:00 +30°C° 0 mm 3 mps 753 mmHg 76%
20:00 +29°C° 0 mm 3 mps 754 mmHg 82%
21:00 +29°C° 0 mm 2 mps 754 mmHg 83%
22:00 +29°C° 0 mm 2 mps 755 mmHg 85%
23:00 +29°C° 0 mm 2 mps 755 mmHg 86%

Tomorrow, 19 September, Saturday

Time Temperature Precipitation Wind Pressure Humidity
00:00 +29°C° 0 mm 2 mps 755 mmHg 86%
01:00 +28°C° 0 mm 2 mps 754 mmHg 87%
02:00 +28°C° 0 mm 1 mps 754 mmHg 87%
03:00 +28°C° 0 mm 1 mps 754 mmHg 87%
04:00 +27°C° 0 mm 1 mps 754 mmHg 87%
05:00 +27°C° 0 mm 1 mps 753 mmHg 88%
06:00 +28°C° 0 mm 1 mps 754 mmHg 85%
07:00 +28°C° 0 mm 1 mps 754 mmHg 83%
08:00 +29°C° 0 mm 1 mps 755 mmHg 80%
09:00 +31°C° 0 mm 1 mps 755 mmHg 72%
10:00 +33°C° 0 mm 1 mps 755 mmHg 63%
11:00 +35°C° 0 mm 1 mps 755 mmHg 54%
12:00 +34°C° 0.1 mm 1 mps 754 mmHg 60%
13:00 +33°C° 0.1 mm 1 mps 754 mmHg 65%
14:00 +31°C° 0.1 mm 2 mps 753 mmHg 70%
15:00 +32°C° 0.1 mm 1 mps 753 mmHg 68%
16:00 +32°C° 0.1 mm 1 mps 753 mmHg 67%
17:00 +33°C° 0.1 mm 1 mps 752 mmHg 65%
18:00 +31°C° 0.8 mm 1 mps 753 mmHg 73%
19:00 +29°C° 0.8 mm 1 mps 754 mmHg 82%
20:00 +27°C° 0.8 mm 1 mps 755 mmHg 90%
21:00 +27°C° 0.1 mm 1 mps 755 mmHg 90%
22:00 +27°C° 0.1 mm 2 mps 755 mmHg 89%
23:00 +26°C° 0.1 mm 2 mps 755 mmHg 89%

Day after tomorrow, 20 September, Sunday

Time Temperature Precipitation Wind Pressure Humidity
00:00 +26°C° 0.1 mm 2 mps 755 mmHg 89%
01:00 +26°C° 0.1 mm 2 mps 755 mmHg 89%
02:00 +26°C° 0.1 mm 1 mps 754 mmHg 88%
03:00 +26°C° 0 mm 1 mps 754 mmHg 89%
04:00 +26°C° 0 mm 1 mps 754 mmHg 90%
05:00 +25°C° 0 mm 1 mps 754 mmHg 91%
06:00 +26°C° 0 mm 1 mps 754 mmHg 88%
07:00 +27°C° 0 mm 1 mps 755 mmHg 85%
08:00 +28°C° 0 mm 1 mps 755 mmHg 82%
09:00 +31°C° 0 mm 1 mps 755 mmHg 73%
10:00 +33°C° 0 mm 1 mps 755 mmHg 65%
11:00 +35°C° 0 mm 1 mps 755 mmHg 57%
12:00 +35°C° 0 mm 1 mps 754 mmHg 57%
13:00 +35°C° 0 mm 2 mps 753 mmHg 56%
14:00 +35°C° 0 mm 3 mps 753 mmHg 56%
15:00 +34°C° 0.1 mm 3 mps 753 mmHg 61%
16:00 +33°C° 0.1 mm 3 mps 753 mmHg 66%
17:00 +31°C° 0.1 mm 3 mps 753 mmHg 71%
18:00 +30°C° 0.1 mm 2 mps 753 mmHg 75%
19:00 +29°C° 0.1 mm 2 mps 754 mmHg 80%
20:00 +29°C° 0.1 mm 2 mps 754 mmHg 85%
21:00 +28°C° 0 mm 2 mps 755 mmHg 86%
22:00 +28°C° 0 mm 2 mps 755 mmHg 87%
23:00 +28°C° 0 mm 1 mps 755 mmHg 88%

21 September, Monday

Time Temperature Precipitation Wind Pressure Humidity
00:00 +28°C° 0 mm 1 mps 755 mmHg 88%
01:00 +28°C° 0 mm 1 mps 754 mmHg 89%
02:00 +27°C° 0 mm 1 mps 754 mmHg 90%
03:00 +27°C° 0 mm 1 mps 754 mmHg 91%
04:00 +27°C° 0 mm 1 mps 754 mmHg 92%
05:00 +27°C° 0 mm 1 mps 754 mmHg 92%
06:00 +28°C° 0 mm 1 mps 754 mmHg 88%
07:00 +29°C° 0 mm 1 mps 755 mmHg 83%
08:00 +29°C° 0 mm 1 mps 755 mmHg 79%
09:00 +31°C° 0 mm 1 mps 755 mmHg 71%
10:00 +33°C° 0 mm 1 mps 755 mmHg 64%
11:00 +33°C° 0 mm 0 mps 755 mmHg 56%
12:00 +34°C° 0.3 mm 1 mps 754 mmHg 60%
13:00 +35°C° 0.3 mm 2 mps 753 mmHg 64%
14:00 +34°C° 0.3 mm 2 mps 752 mmHg 68%
15:00 +33°C° 0.7 mm 3 mps 752 mmHg 73%
16:00 +31°C° 0.7 mm 3 mps 752 mmHg 77%
17:00 +31°C° 0.7 mm 3 mps 752 mmHg 82%
18:00 +30°C° 1.1 mm 2 mps 753 mmHg 85%
19:00 +29°C° 1.1 mm 2 mps 754 mmHg 88%
20:00 +28°C° 1.1 mm 2 mps 754 mmHg 91%
21:00 +28°C° 0.9 mm 2 mps 755 mmHg 91%
22:00 +27°C° 0.9 mm 1 mps 755 mmHg 92%
23:00 +27°C° 0.9 mm 1 mps 755 mmHg 92%

22 September, Tuesday

Time Temperature Precipitation Wind Pressure Humidity
00:00 +27°C° 0.5 mm 1 mps 755 mmHg 93%
01:00 +27°C° 0.5 mm 2 mps 754 mmHg 94%
02:00 +26°C° 0.5 mm 2 mps 754 mmHg 95%
03:00 +26°C° 0.3 mm 2 mps 754 mmHg 95%
04:00 +26°C° 0.3 mm 2 mps 754 mmHg 95%
05:00 +26°C° 0.3 mm 2 mps 754 mmHg 95%
06:00 +27°C° 0.2 mm 2 mps 754 mmHg 93%
07:00 +28°C° 0.2 mm 2 mps 755 mmHg 90%
08:00 +28°C° 0.2 mm 2 mps 755 mmHg 88%
09:00 +30°C° 0.3 mm 2 mps 755 mmHg 81%
10:00 +31°C° 0.3 mm 2 mps 755 mmHg 73%
11:00 +33°C° 0.3 mm 1 mps 755 mmHg 66%
12:00 +32°C° 0.6 mm 2 mps 754 mmHg 69%
13:00 +32°C° 0.6 mm 2 mps 753 mmHg 71%
14:00 +32°C° 0.6 mm 2 mps 753 mmHg 74%
15:00 +31°C° 0.6 mm 2 mps 753 mmHg 76%
16:00 +31°C° 0.6 mm 2 mps 753 mmHg 77%
17:00 +30°C° 0.6 mm 2 mps 752 mmHg 79%
18:00 +30°C° 0.1 mm 1 mps 753 mmHg 82%
19:00 +29°C° 0.1 mm 1 mps 754 mmHg 85%
20:00 +28°C° 0.1 mm 1 mps 754 mmHg 88%
21:00 +27°C° 0.1 mm 1 mps 755 mmHg 89%
22:00 +27°C° 0.1 mm 1 mps 755 mmHg 90%
23:00 +27°C° 0.1 mm 1 mps 755 mmHg 91%

23 September, Wednesday

Time Temperature Precipitation Wind Pressure Humidity
00:00 +27°C° 0.2 mm 1 mps 755 mmHg 92%
01:00 +27°C° 0.2 mm 1 mps 754 mmHg 92%
02:00 +26°C° 0.2 mm 2 mps 754 mmHg 93%
03:00 +26°C° 0.1 mm 2 mps 754 mmHg 93%
04:00 +26°C° 0.1 mm 2 mps 754 mmHg 93%
05:00 +26°C° 0.1 mm 2 mps 754 mmHg 93%
06:00 +27°C° 0 mm 2 mps 754 mmHg 90%
07:00 +28°C° 0 mm 2 mps 755 mmHg 87%
08:00 +28°C° 0 mm 1 mps 755 mmHg 84%
09:00 +30°C° 0.4 mm 1 mps 755 mmHg 80%
10:00 +31°C° 0.4 mm 1 mps 755 mmHg 75%
11:00 +32°C° 0.4 mm 1 mps 755 mmHg 71%
12:00 +32°C° 0.8 mm 1 mps 754 mmHg 72%
13:00 +32°C° 0.8 mm 2 mps 754 mmHg 73%
14:00 +32°C° 0.8 mm 2 mps 753 mmHg 75%
15:00 +31°C° 0.8 mm 2 mps 753 mmHg 78%
16:00 +30°C° 0.8 mm 2 mps 753 mmHg 82%
17:00 +30°C° 0.8 mm 2 mps 753 mmHg 85%
18:00 +29°C° 0.9 mm 2 mps 754 mmHg 87%
19:00 +28°C° 0.9 mm 1 mps 754 mmHg 88%
20:00 +27°C° 0.9 mm 1 mps 755 mmHg 89%
21:00 +27°C° 0.2 mm 1 mps 755 mmHg 90%
22:00 +27°C° 0.2 mm 1 mps 756 mmHg 91%
23:00 +27°C° 0.2 mm 1 mps 756 mmHg 91%
Show more